Weather in Buzinovka

Russia / Volgograd Oblast     48°30′06″N   43°53′42″E
temp.,
°C
wind,
m/s
gust,
m/s
humid.,
%
clouds,
%
prec.,
mm/h
press.,
hPa
HPBL,
m
27 november, sat
sat2700:00−1se511935 0.0 1025197
03:00−2se410925 0.0 1024164
06:00−3se510925 0.0 1023163
09:00−1se512865 0.0 1023262
12:00+2se6117728 0.0 1021412
15:00+2se61383100 0.0 1020360
18:00+1se61491100 0.0 1019381
21:00+3sse81694100 0.0 1017391
28 november, sun
sun2800:00+4sse71593100 0.0 1016384
03:00+4sse71494100 0.0 1015319
06:00+4s61394100 0.1 1015238
09:00+6s51195100 0.7 1015228
12:00+7s61288100 0.4 1014292
15:00+9s5108993 0.4 1014231
18:00+7s369421 0.3 1015115
21:00+7s3787100 0.4 1016154
29 november, mon
mon2900:00+6se4889100 0.0 1016169
03:00+5se41195100 0.0 1016229
06:00+6se61294100 0.0 1015297
09:00+6sse71396100 0.0 1015342
12:00+9sse81481100 0.0 1014502
15:00+10sse81582100 0.1 1012404
18:00+9sse101884100 0.0 1010391
21:00+9sse102081100 0.1 1008447
30 november, tue
tue3000:00+10s92077100 0.3 1006630
03:00+10sse81576100 0.8 1003377
06:00+9s71479100 0.3 1002441
09:00+11ssw101882100 2.6 1000859
12:00+12wsw11158495 0.1 1001910
15:00+12wsw7117431 0.2 1001839
18:00+8sw228745 0.0 100224
21:00+7s1189100 0.0 100013
1 december, wed
wed100:00+7ese3490100 0.0 99680
03:00+7se4698100 6.9 996155
06:00+9s8158862 0.9 992728
09:00+9sw81377100 1.2 991911
12:00+1wnw121794100 1.9 10001012
15:00+2w101471100 1.9 10041082
18:000w813755 0.0 1006880
21:00−1w813775 0.0 1009727